EHI
20 22 22 14 5 1 0 1 1 0 0 0 0 0 0 0 0 0 0 1 2 3 3 3 2 1 0 0 0 0 0 0 1 1 1 0 1 1 1 0 0 0 0 0 1 1 1 0 0
18 19 17 10 3 0 1 2 2 1 0 0 0 0 0 0 0 0 0 0 1 2 3 3 3 1 0 0 0 0 0 0 0 0 0 0 0 0 0 0 0 0 0 0 0 1 1 0 0
16 15 10 5 1 0 1 3 3 1 0 0 0 0 0 0 0 0 0 0 0 1 2 3 3 2 1 0 0 0 0 0 0 0 0 0 0 0 0 0 0 0 0 0 0 0 1 0 0
14 11 5 1 0 0 0 1 1 0 0 0 0 0 0 0 1 1 0 0 0 0 1 2 3 3 2 1 0 0 0 0 0 0 0 0 0 0 0 0 0 0 0 0 0 0 0 0 0
12 7 2 0 0 0 0 0 0 0 0 0 0 0 0 1 2 1 0 0 0 0 0 1 2 3 3 1 0 0 0 0 0 0 0 0 0 0 0 0 0 0 0 0 0 0 0 0 0
10 5 1 0 0 0 0 0 0 0 0 0 0 1 0 1 2 1 0 0 0 0 0 0 1 2 2 2 1 0 0 0 0 0 0 0 0 0 0 0 0 0 0 0 0 0 0 0 0
7 5 1 0 0 0 0 0 0 0 0 0 0 0 0 1 1 1 0 0 0 0 0 0 0 1 1 2 1 0 0 0 0 0 0 0 0 0 0 0 0 0 0 0 0 0 0 0 0
3 3 1 0 0 0 0 0 0 0 0 0 0 0 0 0 1 2 1 1 0 0 0 0 0 0 0 1 1 0 0 0 0 0 0 0 0 0 0 0 0 0 0 0 0 0 0 0 0
1 1 0 0 0 0 0 0 0 0 1 1 1 2 2 0 1 2 2 1 0 0 0 0 0 0 0 0 0 0 0 0 0 0 0 0 0 0 0 0 0 0 0 0 0 0 0 0 0
0 0 0 0 0 0 0 0 0 0 0 1 3 5 4 1 0 1 1 1 0 0 0 0 0 0 0 0 0 0 0 0 0 0 0 0 0 0 0 0 0 0 0 0 0 0 0 0 0
0 0 0 0 0 0 0 0 0 0 0 1 3 5 5 2 0 0 0 0 0 0 0 0 0 0 0 0 0 0 0 0 0 0 0 0 0 0 0 0 0 0 0 0 0 0 0 0 0
0 0 0 0 0 0 0 0 0 1 1 1 3 5 4 2 1 0 0 1 1 1 0 0 0 0 0 0 0 0 0 0 0 0 0 0 0 0 0 0 0 0 0 0 0 0 0 0 0
0 0 0 0 0 0 0 0 1 2 2 2 3 4 3 2 1 0 1 2 2 2 1 0 0 0 0 0 0 0 0 0 0 0 0 0 0 0 0 0 0 0 0 0 0 0 0 0 0
0 0 0 0 0 0 0 0 1 1 2 2 3 2 2 1 1 1 2 3 3 2 1 0 0 0 0 0 0 0 0 0 0 0 0 0 0 0 0 0 0 0 0 0 0 0 0 0 0
0 0 0 0 0 0 0 0 0 0 0 1 2 1 1 0 0 1 2 3 3 2 1 0 0 0 0 0 0 0 0 0 0 0 0 0 0 0 0 0 0 0 0 0 0 0 0 0 0
0 0 0 0 0 0 0 0 0 0 0 0 1 1 1 0 0 1 2 3 1 1 0 0 0 0 0 1 1 1 0 0 0 0 0 0 0 0 0 0 0 0 0 0 0 0 0 0 0
0 0 0 0 0 0 0 0 0 0 0 0 0 1 1 1 0 1 2 2 1 0 0 0 0 0 0 1 2 2 1 0 0 0 0 0 0 0 0 0 0 0 0 0 0 0 0 0 0
0 0 0 0 0 0 0 0 0 0 0 0 0 1 1 1 0 1 1 1 1 0 0 0 0 0 0 2 3 3 1 0 0 0 0 0 0 0 0 0 0 0 0 0 0 0 0 0 0
0 0 0 0 0 0 0 0 0 0 0 0 0 0 0 0 0 0 0 0 0 0 0 0 0 0 1 2 4 4 2 1 0 0 0 0 0 0 0 0 0 0 0 0 0 0 0 0 0
0 0 0 0 0 0 0 0 0 0 0 0 1 0 0 0 0 1 1 1 0 0 0 0 0 1 2 3 4 4 3 1 0 0 0 0 0 0 0 0 0 0 0 0 0 0 0 0 0
0 0 0 0 0 0 0 0 0 0 0 0 0 0 0 0 1 2 2 2 2 1 0 0 0 1 2 2 2 3 3 2 1 0 0 0 0 0 0 0 0 0 0 0 0 0 0 0 0
0 0 0 0 0 0 0 0 0 1 0 0 0 1 1 0 1 2 3 4 4 2 1 0 0 0 1 1 1 2 3 3 2 0 0 0 0 0 0 0 0 0 0 0 0 0 0 0 0
0 0 0 0 0 0 0 0 0 0 0 0 1 2 2 2 2 3 5 6 6 4 2 1 0 0 0 0 1 2 3 3 1 0 0 0 0 0 0 0 0 0 0 0 0 0 0 0 0
0 0 0 0 0 0 0 0 0 0 0 0 1 2 2 3 4 6 7 8 7 5 4 2 1 0 1 1 1 2 3 2 1 0 0 0 0 1 1 1 0 0 0 0 0 0 0 0 0
0 0 0 0 0 0 0 0 0 0 0 0 0 1 2 3 5 6 7 8 8 7 6 5 3 2 1 1 1 1 2 2 1 0 0 1 1 2 2 1 0 0 0 0 0 0 0 0 0
0 0 0 0 0 0 0 0 0 0 0 0 0 1 2 3 5 5 5 7 9 9 9 8 6 3 2 1 0 1 2 2 1 1 2 2 2 2 1 0 0 0 0 0 0 0 0 0 0
0 0 0 0 0 0 0 0 0 0 0 0 0 1 2 4 5 5 5 6 8 9 10 9 8 5 3 2 1 1 2 2 2 3 4 4 2 1 0 0 0 0 0 0 0 0 0 0 0
0 0 0 0 0 0 0 0 0 0 0 0 0 1 2 3 4 5 5 6 7 9 9 9 7 5 3 3 2 3 3 4 4 4 4 3 2 0 0 0 0 0 0 0 0 0 0 0 0
0 0 0 0 0 0 0 0 0 0 0 0 0 1 3 4 5 7 7 5 5 6 7 6 5 5 4 3 3 3 4 5 6 5 3 3 2 1 0 0 0 0 0 0 0 0 0 0 0
0 0 0 0 0 0 0 0 0 0 0 0 1 2 4 5 6 9 9 5 3 4 5 4 4 5 5 4 3 4 5 6 6 5 3 3 3 2 1 0 0 0 0 0 0 0 0 0 0
Wind_Speed
10 10 6 2 2 2 3 6 9 8 8 9 9 10 13 12 9 8 3 5 8 9 9 9 10 10 10 10 10 11 10 10 10 10 10 10 9 10 10 10 10 10 10 9 11 11 11 11 10
9 6 4 3 2 0 5 7 10 9 7 5 7 11 12 12 11 8 4 5 8 9 9 9 10 10 10 10 11 11 11 11 11 11 11 10 10 10 10 10 11 11 12 12 12 12 12 11 11
10 6 4 2 2 3 6 8 8 8 6 5 7 10 9 7 8 6 5 6 8 10 10 9 10 10 11 11 11 11 11 11 11 11 11 11 10 10 10 10 11 12 12 13 13 12 12 11 11
5 3 3 0 4 7 8 7 6 7 6 6 7 9 8 8 6 7 7 7 9 10 10 9 10 10 11 11 11 11 11 11 11 10 10 10 10 10 10 10 11 11 12 13 12 12 12 11 11
3 3 2 1 4 6 6 6 5 6 6 7 8 9 9 8 9 9 7 8 9 9 9 8 9 10 10 10 10 10 10 10 10 10 10 10 10 10 10 11 11 12 12 12 12 12 12 12 11
3 3 1 2 5 6 6 5 6 7 6 6 7 9 8 7 7 7 7 7 8 9 9 8 9 10 10 10 10 10 10 10 10 10 10 10 10 10 11 11 12 12 12 12 12 12 12 11 11
3 2 1 3 5 5 6 5 6 6 6 5 4 7 8 7 5 6 7 8 7 8 8 7 7 8 10 10 10 10 10 10 9 9 9 9 9 10 11 11 11 12 12 12 11 11 11 10 9
3 2 1 2 5 5 6 6 6 7 6 5 4 6 7 7 5 6 7 7 6 6 5 5 7 7 7 7 9 9 9 9 8 8 7 7 9 9 11 11 11 11 11 10 10 9 9 8 7
3 1 2 3 4 4 5 6 5 6 7 7 9 10 9 10 7 6 6 6 5 5 4 4 4 5 6 6 7 6 7 6 6 5 5 5 4 5 6 9 10 10 9 8 7 7 6 5 5
1 1 3 4 5 5 5 5 4 5 6 7 10 11 11 8 7 6 6 6 5 4 4 4 4 4 4 5 5 3 3 3 2 3 3 2 3 4 6 8 8 8 7 6 4 3 2 2 2
1 2 3 4 6 5 6 5 3 4 5 6 8 11 9 8 6 5 5 6 5 4 4 4 3 3 4 3 3 1 1 1 1 3 4 3 3 3 4 3 3 3 3 2 2 1 2 3 3
2 3 4 4 5 4 5 4 5 6 6 7 8 9 9 7 6 5 4 5 5 4 4 3 3 3 4 4 3 2 2 2 2 2 4 3 2 2 2 2 2 2 1 2 2 2 3 4 5
3 3 3 4 4 4 5 5 5 7 7 8 8 8 7 6 6 5 4 5 5 5 3 3 3 3 3 3 2 3 3 3 2 2 3 4 3 3 3 3 2 3 2 2 3 3 5 5 5
2 4 4 3 3 3 4 4 4 5 6 7 8 7 6 5 5 4 4 4 5 5 4 3 3 3 4 3 2 3 3 2 2 2 3 4 3 3 3 3 3 3 2 2 3 4 4 4 4
3 3 3 4 4 4 2 2 5 8 7 7 7 7 6 5 5 4 4 4 5 5 4 3 3 3 4 5 3 3 3 2 2 2 2 3 3 4 3 3 2 2 2 3 3 4 3 3 4
5 5 3 4 5 5 3 1 4 7 7 7 6 7 6 5 5 4 4 3 4 5 4 3 3 3 4 4 3 2 3 3 2 2 2 3 4 5 4 3 2 2 3 3 3 3 3 3 3
5 5 4 5 5 5 5 3 5 7 7 7 6 7 7 6 5 5 4 4 4 4 5 4 3 3 3 4 3 3 2 2 2 2 2 2 3 4 4 2 2 3 2 2 3 3 3 3 3
4 3 3 4 4 4 4 4 6 8 7 7 7 7 7 7 6 6 5 4 3 4 5 5 4 3 3 3 2 2 2 2 2 2 2 3 3 4 3 2 3 3 3 3 3 3 3 2 2
5 3 2 1 2 2 3 4 5 7 7 6 7 7 8 8 8 6 5 5 4 4 4 5 4 4 3 2 2 2 1 1 2 2 2 2 3 3 3 2 2 3 2 2 2 3 2 2 2
6 4 2 1 1 2 3 4 5 7 8 7 7 7 8 8 8 7 6 5 5 4 4 5 4 4 3 2 2 2 2 1 1 1 2 2 2 2 2 2 2 2 2 2 2 2 1 0 1
6 4 3 2 2 5 5 5 6 7 7 6 6 6 7 8 9 9 7 6 5 4 4 3 4 4 4 3 2 2 2 1 1 1 1 1 2 2 2 2 2 2 2 1 1 1 2 0 1
5 3 4 5 5 4 5 3 3 7 6 5 5 5 5 6 7 7 7 6 5 4 4 4 4 4 4 4 3 3 2 2 2 2 2 1 2 1 1 2 2 2 2 2 1 1 1 1 1
4 4 6 8 6 7 8 6 3 6 6 6 6 6 6 6 7 8 7 6 5 4 4 3 3 4 4 4 4 2 1 1 2 2 2 2 1 2 2 2 1 2 2 1 1 1 1 0 0
4 6 9 8 6 7 9 6 1 3 4 5 6 6 6 7 6 6 7 6 5 4 4 3 3 3 3 3 4 4 3 2 2 2 2 2 1 1 2 2 2 2 2 2 1 1 1 0 0
6 5 3 4 4 4 4 3 2 4 4 4 5 6 6 6 6 6 7 7 5 5 4 4 3 3 3 3 3 3 4 3 3 2 2 2 2 2 2 2 2 2 1 1 2 1 1 1 0
6 7 4 3 3 2 2 1 4 6 5 5 5 5 5 5 5 6 6 6 6 6 5 5 4 3 3 3 2 3 3 2 2 2 2 2 2 2 3 2 2 2 2 2 1 1 1 1 1
6 6 7 7 8 6 2 2 5 5 5 5 5 5 4 5 5 5 5 6 6 6 5 5 5 4 3 3 2 2 3 2 2 2 1 1 1 2 3 3 3 2 2 1 1 1 1 1 1
7 6 4 4 4 4 3 1 2 4 3 4 5 4 4 4 5 5 4 4 5 5 5 5 5 5 4 3 3 2 2 3 2 1 2 1 1 1 3 3 3 3 3 2 2 1 1 1 1
5 6 6 4 4 3 2 1 3 4 3 4 4 4 4 4 4 5 4 3 3 4 5 4 4 4 3 3 3 3 3 3 3 2 2 2 1 1 2 3 3 3 3 3 3 3 2 2 2
6 6 6 4 4 4 3 0 4 4 4 4 3 4 4 4 4 5 5 4 3 3 4 4 3 3 3 2 2 3 3 3 3 3 2 2 2 2 2 1 2 2 3 3 4 4 3 3 3
Wind_Direction
276 257 250 259 255 216 65 66 71 61 62 50 49 60 65 52 49 83 106 84 89 94 92 80 72 72 72 74 74 74 75 74 73 73 73 72 73 73 68 66 65 64 62 75 81 76 72 68 65
280 281 267 239 257 120 81 74 70 66 71 74 67 66 73 66 71 90 91 83 92 92 89 83 77 75 77 77 75 75 76 76 75 76 75 73 74 74 71 69 67 66 65 77 82 77 73 69 66
265 266 265 254 18 41 77 81 87 84 74 65 71 61 55 65 74 89 103 98 93 92 89 85 79 80 83 81 80 78 78 77 76 77 77 75 72 74 74 72 71 70 70 74 77 76 74 70 66
263 259 249 298 61 58 81 98 104 99 83 71 80 77 71 52 74 102 112 103 96 95 93 90 84 85 85 83 82 81 80 79 77 77 77 77 76 77 77 76 73 72 72 75 77 76 74 71 66
249 258 225 122 88 82 78 82 89 87 76 69 76 89 83 74 90 105 108 102 100 100 100 95 90 88 88 86 85 83 80 80 79 79 79 77 79 79 80 80 78 76 75 76 77 76 73 69 65
263 254 247 117 98 92 83 76 81 86 83 82 94 102 92 97 101 105 102 99 102 103 105 103 96 91 90 88 87 85 82 82 82 82 83 84 85 85 85 84 83 79 78 77 77 77 73 68 64
286 297 261 109 105 93 83 69 69 81 77 59 71 98 110 107 110 113 106 99 98 102 112 119 115 103 97 93 89 88 86 85 86 89 90 93 94 90 88 86 86 83 81 80 79 78 75 69 64
288 291 325 90 101 88 87 82 68 73 73 52 53 91 118 126 127 116 109 104 104 107 112 124 128 127 115 103 97 97 96 96 100 99 99 103 102 98 96 89 86 86 84 84 84 82 78 71 62
274 308 12 53 94 102 104 99 88 84 86 71 62 80 112 129 131 123 115 107 104 102 106 107 113 115 119 119 114 115 113 112 117 120 119 124 115 103 98 93 94 94 92 90 90 91 90 78 65
217 36 42 49 86 109 106 102 123 122 104 96 92 95 113 127 135 130 126 125 120 117 117 109 107 109 110 115 129 145 134 147 169 131 130 119 89 90 96 107 108 109 106 102 102 106 87 52 55
66 86 68 59 79 105 112 103 93 105 92 99 112 119 125 131 130 129 126 121 122 119 108 101 102 104 104 103 107 96 98 123 108 99 102 94 96 111 111 118 122 122 122 101 95 85 69 69 63
103 79 83 86 80 88 102 106 85 73 81 96 109 121 130 136 134 131 126 121 115 104 105 111 118 104 102 103 97 95 81 69 56 63 88 83 76 82 96 99 107 108 74 71 68 59 57 58 63
118 111 97 93 108 108 106 98 89 90 100 105 116 123 132 138 136 137 136 134 127 122 120 112 96 102 100 92 88 84 69 57 55 43 73 83 74 72 78 74 62 65 64 57 54 59 57 48 52
117 126 136 133 134 136 129 125 125 123 128 126 131 132 138 140 141 140 138 139 130 126 128 120 119 106 102 97 88 84 84 68 52 53 58 83 82 78 72 69 57 55 56 60 59 61 63 56 54
160 173 170 179 181 164 157 155 153 148 148 144 145 139 139 143 149 147 147 144 136 137 134 129 124 105 100 92 74 73 75 78 57 61 57 82 90 85 78 79 70 59 52 64 62 59 63 71 67
205 211 201 195 197 174 201 203 151 150 156 152 152 148 152 154 159 154 154 150 139 132 129 129 123 107 101 102 88 69 68 65 53 44 33 60 80 83 75 67 66 62 56 61 67 69 63 61 63
219 224 199 188 201 184 192 198 158 161 168 160 162 158 160 161 166 161 157 157 148 139 139 139 125 110 105 102 104 83 71 66 57 53 36 42 72 83 81 62 68 71 63 59 66 63 73 71 72
247 238 218 191 178 194 197 193 165 175 185 178 173 171 167 167 170 164 160 156 150 146 139 136 127 123 113 107 96 83 69 67 67 66 49 43 63 78 82 66 60 69 61 56 64 65 65 79 79
281 271 260 184 151 216 223 213 186 182 188 189 186 180 176 176 168 163 160 158 159 152 144 134 141 141 127 122 109 107 98 78 77 85 88 67 65 76 82 71 58 64 67 68 75 75 70 69 89
268 266 256 176 178 239 239 239 210 184 193 191 193 186 181 176 167 163 164 164 164 158 149 144 145 143 131 122 123 131 119 107 99 73 68 77 78 75 93 97 88 79 73 67 71 79 76 57 97
264 263 262 246 254 253 258 254 216 179 186 183 188 181 177 178 171 164 168 168 164 159 150 149 158 148 138 135 119 109 101 93 114 121 88 64 93 94 89 100 106 109 100 90 82 93 81 24 334
266 270 265 256 255 261 242 260 219 175 171 171 179 176 175 169 163 158 161 160 164 163 151 163 164 152 145 143 148 158 157 157 161 142 136 149 133 120 107 108 114 118 111 118 157 108 98 76 335
260 271 268 265 263 270 261 254 214 167 175 176 176 173 171 164 163 159 156 156 157 153 151 169 157 151 150 156 145 153 144 158 152 130 146 160 150 152 146 136 131 124 130 148 135 100 85 113 163
262 263 261 257 258 258 248 240 228 162 172 167 166 168 167 164 159 153 152 151 155 145 142 142 141 140 146 156 155 164 157 162 159 157 166 164 155 163 173 161 156 150 153 161 154 145 151 273 27
241 257 266 239 221 242 232 223 120 94 93 116 141 153 153 155 155 156 155 156 156 147 150 152 147 143 149 160 161 166 167 176 172 166 178 177 169 168 186 155 155 154 149 150 139 157 178 172 168
238 238 248 276 277 295 265 173 111 100 90 96 108 121 138 145 150 154 157 157 158 156 160 162 159 160 164 168 169 161 158 164 159 174 185 181 171 167 165 158 156 163 164 168 155 163 181 175 179
264 249 259 274 286 285 241 141 119 100 100 102 107 115 131 146 146 149 150 153 157 161 165 166 160 161 170 180 176 167 155 152 159 169 173 166 173 174 164 165 167 171 167 159 146 159 188 150 147
257 288 287 270 280 274 260 217 147 131 123 110 108 112 122 138 146 146 147 150 161 164 167 171 167 174 179 178 176 175 163 153 155 156 162 170 183 178 168 175 170 169 171 168 176 164 175 132 132
233 242 254 264 264 278 290 29 80 113 124 114 110 119 127 130 142 144 144 147 153 157 160 165 169 170 175 182 182 175 176 166 165 181 181 187 174 171 181 186 183 184 184 186 178 176 183 179 184
276 270 262 262 275 272 274 301 74 92 91 79 82 104 118 128 137 141 143 149 155 154 154 160 165 164 169 177 178 180 176 171 177 192 185 187 185 178 172 189 191 204 199 197 184 182 183 193 195